Content
SEND FEEDBACK

Daily
Averages
Monthly
Summary
United States of America

ACHANG BAY, GUAM


Home > North America > United States > Guam
Elevation: 10 meters     Latitude: 13 16N     Longitude: 144 45E

WEATHER
 
SELECT A DAY
Number of Records: 356,964;   Date Range: 1/1/95 - 12/23/14
 
SHARE

PRINT THIS DATA

[ ← Previous Day ]
WEATHER ALMANAC - 25 FEBRUARY, 2013
[ Next Day → ]
[ °F ]   °C
Weather ElementAverageHighLow
Temperature25.8 °C29 °C (2:06 pm)24 °C (2:41 am)
Dewpoint22.2 °C23 °C (11:44 am)21 °C (12:17 am)
Humidity80.4 %89 % (2:41 am)66 % (2:06 pm)
Barometer1011.9 hPa1013.2 hPa (8:55 am)1010.2 hPa (3:55 pm)
Wind Speed29.6 km/h37 km/h (6:32 pm)
Wind Gust46.3 km/h (1:29 pm)
Weather ElementAverage
Visibility16.1 km
Wind DirectionNE (44.8 °)

Weather ElementTotal
Precipitation---
Cooling Degree Days8.2 (Base 18.3)
Growing Degree Days16.5 (Base 10)
Averaged from 95 records on 25 February, 2013
WEATHER CONDITIONS BREAKOUT
WIND DIRECTION BREAKOUT
WEATHER BY HOUR - 25 FEBRUARY, 2013
[ °F ]   °C
Local TimeTemperatureDewpointHumidityBarometerVisibilityWind DirectionWind SpeedGust SpeedPrecipitationEventsConditions
12:17 AM25 °C21 °C78 %1012.5 hPa16.1 kmNE (50°)27.8 km/hMostly Cloudy
12:55 AM24.6 °C21.6 °C83 %1011.9 hPa16.1 kmNE (50°)29.6 km/hPartly Cloudy
1:24 AM25 °C22 °C83 %1011.9 hPa16.1 kmNE (50°)29.6 km/hMostly Cloudy
1:27 AM25 °C22 °C83 %1011.9 hPa16.1 kmNE (50°)27.8 km/hMostly Cloudy
1:55 AM24.7 °C21.9 °C84 %1011.2 hPa16.1 kmNE (50°)25.9 km/hScattered Clouds
2:02 AM25 °C22 °C83 %1011.2 hPa16.1 kmNE (50°)27.8 km/hMostly Cloudy
2:05 AM25 °C22 °C83 %1011.2 hPa16.1 kmNE (50°)27.8 km/hScattered Clouds
2:21 AM25 °C22 °C83 %1011.2 hPa16.1 kmNE (50°)24.1 km/hMostly Cloudy
2:26 AM25 °C22 °C83 %1011.2 hPa16.1 kmNE (50°)29.6 km/hRainLight Rain
2:41 AM24 °C22 °C89 %1011.2 hPa16.1 kmENE (60°)25.9 km/hMostly Cloudy
2:55 AM24.4 °C21.6 °C84 %1011.2 hPa16.1 kmNE (50°)27.8 km/h0 mmOvercast
2:57 AM24 °C22 °C89 %1011.2 hPa16.1 kmNE (50°)27.8 km/hMostly Cloudy
3:35 AM24 °C22 °C89 %1011.2 hPa16.1 kmNE (50°)25.9 km/hMostly Cloudy
3:55 AM24.7 °C21.7 °C83 %1011.2 hPa16.1 kmNE (50°)31.5 km/hMostly Cloudy
4:02 AM25 °C22 °C83 %1011.2 hPa16.1 kmNE (50°)31.5 km/hScattered Clouds
4:21 AM25 °C22 °C83 %1011.2 hPa16.1 kmNE (50°)24.1 km/hMostly Cloudy
4:28 AM25 °C22 °C83 %1011.2 hPa16.1 kmNE (50°)27.8 km/hScattered Clouds
4:55 AM24.8 °C21.4 °C81 %1010.8 hPa16.1 kmNE (40°)35.2 km/hScattered Clouds
5:08 AM25 °C22 °C83 %1010.8 hPa16.1 kmNE (50°)31.5 km/hMostly Cloudy
5:19 AM25 °C22 °C83 %1010.8 hPa16.1 kmNE (50°)27.8 km/h40.7 km/hScattered Clouds
5:55 AM24.5 °C21.2 °C82 %1011.2 hPa16.1 kmNE (50°)29.6 km/hPartly Cloudy
6:55 AM24.6 °C21.2 °C81 %1011.9 hPa16.1 kmNE (50°)33.3 km/hPartly Cloudy
7:10 AM25 °C22 °C83 %1012.2 hPa16.1 kmNE (50°)25.9 km/hMostly Cloudy
7:16 AM25 °C22 °C83 %1012.2 hPa16.1 kmNE (50°)27.8 km/hScattered Clouds
7:18 AM25 °C22 °C83 %1012.5 hPa16.1 kmNE (50°)25.9 km/hMostly Cloudy
7:19 AM25 °C21 °C78 %1012.5 hPa16.1 kmNE (50°)27.8 km/hMostly Cloudy
7:23 AM25 °C21 °C78 %1012.5 hPa16.1 kmNE (50°)24.1 km/hMostly Cloudy
7:27 AM25 °C21 °C78 %1012.5 hPa16.1 kmNE (50°)25.9 km/hMostly Cloudy
7:30 AM25 °C21 °C78 %1012.5 hPa16.1 kmNE (50°)24.1 km/hMostly Cloudy
7:35 AM25 °C22 °C83 %1012.5 hPa16.1 kmNE (50°)24.1 km/hMostly Cloudy
7:37 AM25 °C22 °C83 %1012.5 hPa16.1 kmNE (40°)29.6 km/hMostly Cloudy
7:55 AM25.6 °C21.7 °C79 %1012.9 hPa16.1 kmNE (50°)25.9 km/hMostly Cloudy
8:07 AM26 °C22 °C78 %1012.9 hPa16.1 kmENE (60°)27.8 km/hMostly Cloudy
8:14 AM26 °C22 °C78 %1012.9 hPa16.1 kmNE (50°)29.6 km/hMostly Cloudy
8:18 AM26 °C22 °C78 %1012.9 hPa16.1 kmENE (60°)27.8 km/hScattered Clouds
8:55 AM26.4 °C21.6 °C75 %1013.2 hPa16.1 kmNE (50°)29.6 km/hPartly Cloudy
9:55 AM27.5 °C21.8 °C71 %1013.2 hPa16.1 kmNE (40°)29.6 km/h38.9 km/hPartly Cloudy
10:55 AM28 °C21.9 °C69 %1013.2 hPa16.1 kmNE (40°)31.5 km/hPartly Cloudy
11:29 AM28 °C22 °C70 %1012.9 hPa16.1 kmNE (40°)33.3 km/hMostly Cloudy
11:44 AM28 °C23 °C74 %1012.5 hPa16.1 kmNE (40°)31.5 km/hMostly Cloudy
11:48 AM28 °C23 °C74 %1012.5 hPa16.1 kmNE (40°)35.2 km/hMostly Cloudy
11:49 AM28 °C23 °C74 %1012.5 hPa16.1 kmNE (40°)33.3 km/hMostly Cloudy
11:55 AM28 °C22.7 °C73 %1012.5 hPa16.1 kmNE (40°)25.9 km/hScattered Clouds
12:21 PM28 °C23 °C74 %1011.9 hPa16.1 kmNE (40°)31.5 km/hMostly Cloudy
12:55 PM27.9 °C22 °C70 %1011.5 hPa16.1 kmNE (40°)33.3 km/hMostly Cloudy
1:29 PM28 °C22 °C70 %1011.2 hPa16.1 kmNE (50°)31.5 km/h46.3 km/hMostly Cloudy
1:55 PM28.1 °C22.3 °C71 %1011.2 hPa16.1 kmNE (40°)33.3 km/hMostly Cloudy
2:06 PM29 °C22 °C66 %1011.2 hPa16.1 kmNE (40°)33.3 km/hScattered Clouds
2:11 PM29 °C22 °C66 %1010.8 hPa16.1 kmNE (40°)33.3 km/hMostly Cloudy
2:13 PM29 °C22 °C66 %1010.8 hPa16.1 kmNE (40°)31.5 km/hScattered Clouds
2:25 PM29 °C22 °C66 %1010.8 hPa16.1 kmNE (40°)31.5 km/h44.4 km/hMostly Cloudy
2:27 PM29 °C22 °C66 %1010.8 hPa16.1 kmNE (40°)33.3 km/h44.4 km/hScattered Clouds
2:28 PM29 °C22 °C66 %1010.8 hPa16.1 kmNE (40°)31.5 km/h40.7 km/hMostly Cloudy
2:55 PM27.8 °C22.5 °C73 %1010.5 hPa16.1 kmNE (40°)33.3 km/hMostly Cloudy
3:55 PM27.5 °C22.5 °C74 %1010.2 hPa16.1 kmNE (40°)25.9 km/hMostly Cloudy
4:01 PM27 °C22 °C74 %1010.2 hPa16.1 kmNE (40°)29.6 km/hScattered Clouds
4:06 PM27 °C23 °C79 %1010.2 hPa16.1 kmNE (40°)29.6 km/hMostly Cloudy
4:18 PM27 °C22 °C74 %1010.2 hPa16.1 kmNE (50°)29.6 km/hMostly Cloudy
5:07 PM27 °C22 °C74 %1010.8 hPa16.1 kmNE (40°)29.6 km/hMostly Cloudy
5:55 PM26.4 °C22.1 °C77 %1011.2 hPa16.1 kmNE (40°)27.8 km/hMostly Cloudy
6:32 PM26 °C23 °C83 %1011.5 hPa16.1 kmENE (60°)37 km/hOvercast
6:34 PM26 °C23 °C83 %1011.5 hPa16.1 kmENE (60°)29.6 km/h42.6 km/hRainLight Rain
6:38 PM25 °C23 °C89 %1011.5 hPa14.5 kmNE (50°)27.8 km/h42.6 km/hRainLight Rain
6:39 PM25 °C23 °C89 %1011.5 hPa14.5 kmNE (50°)25.9 km/h42.6 km/hRainLight Rain
6:41 PM25 °C23 °C89 %1011.5 hPa14.5 kmNE (40°)27.8 km/h42.6 km/hRainLight Rain
6:43 PM25 °C23 °C89 %1011.5 hPa14.5 kmNE (40°)29.6 km/hLight Drizzle
6:46 PM25 °C22 °C83 %1011.5 hPa16.1 kmNE (50°)29.6 km/hMostly Cloudy
6:55 PM25 °C21.9 °C83 %1011.5 hPa16.1 kmNE (50°)27.8 km/h38.9 km/h0 mmMostly Cloudy
7:55 PM25.4 °C22.6 °C84 %1012.2 hPa16.1 kmNE (40°)33.3 km/h46.3 km/hMostly Cloudy
8:55 PM25.2 °C22.1 °C83 %1012.9 hPa16.1 kmNE (40°)25.9 km/hMostly Cloudy
9:21 PM25 °C22 °C83 %1012.9 hPa16.1 kmNNE (30°)33.3 km/hMostly Cloudy
9:28 PM25 °C23 °C89 %1012.9 hPa16.1 kmNNE (30°)27.8 km/hMostly Cloudy
9:42 PM25 °C23 °C89 %1012.9 hPa16.1 kmNE (40°)27.8 km/h33.3 km/hOvercast
9:45 PM25 °C23 °C89 %1012.9 hPa16.1 kmNNE (30°)27.8 km/h33.3 km/hOvercast
9:46 PM25 °C23 °C89 %1012.9 hPa16.1 kmNNE (30°)25.9 km/h33.3 km/hOvercast
9:49 PM25 °C23 °C89 %1012.9 hPa16.1 kmNE (40°)25.9 km/hMostly Cloudy
9:55 PM25.2 °C22.9 °C87 %1012.9 hPa16.1 kmNE (40°)35.2 km/h42.6 km/hOvercast
9:59 PM25 °C23 °C89 %1012.9 hPa16.1 kmNE (40°)29.6 km/h42.6 km/hOvercast
10:01 PM25 °C23 °C89 %1012.9 hPa16.1 kmNNE (30°)25.9 km/h42.6 km/hOvercast
10:05 PM25 °C23 °C89 %1012.9 hPa16.1 kmNNE (30°)27.8 km/hOvercast
10:11 PM25 °C23 °C89 %1012.9 hPa16.1 kmNE (40°)33.3 km/hMostly Cloudy
10:26 PM26 °C22 °C78 %1012.5 hPa16.1 kmNE (40°)29.6 km/hOvercast
10:28 PM26 °C22 °C78 %1012.5 hPa16.1 kmNE (40°)31.5 km/hOvercast
10:34 PM25 °C22 °C83 %1012.5 hPa16.1 kmNE (40°)35.2 km/hMostly Cloudy
10:38 PM25 °C22 °C83 %1012.5 hPa16.1 kmNE (40°)31.5 km/hMostly Cloudy
10:55 PM25.4 °C22.2 °C82 %1012.5 hPa16.1 kmNE (40°)35.2 km/hMostly Cloudy
10:59 PM25 °C22 °C83 %1012.2 hPa16.1 kmNE (50°)29.6 km/hMostly Cloudy
11:00 PM25 °C22 °C83 %1012.2 hPa16.1 kmNE (50°)31.5 km/hMostly Cloudy
11:04 PM25 °C22 °C83 %1012.2 hPa16.1 kmNE (50°)29.6 km/hMostly Cloudy
11:12 PM25 °C22 °C83 %1012.5 hPa16.1 kmNE (40°)31.5 km/hMostly Cloudy
11:25 PM25 °C22 °C83 %1012.5 hPa16.1 kmNE (40°)29.6 km/hMostly Cloudy
11:28 PM25 °C22 °C83 %1012.5 hPa16.1 kmNE (50°)31.5 km/hMostly Cloudy
11:29 PM25 °C22 °C83 %1012.5 hPa16.1 kmNE (40°)29.6 km/hMostly Cloudy
11:37 PM25 °C22 °C83 %1012.5 hPa16.1 kmNE (50°)27.8 km/hMostly Cloudy
11:55 PM25.4 °C22.6 °C84 %1012.5 hPa16.1 kmNE (40°)31.5 km/hMostly Cloudy
Hourly data recorded from PGUA, located 0 kilometers away from Achang Bay, Guam







STORIES FROM OUR PARTNERS